EWG5OD LEPA-EDDK

Flight info

Callsign EWG5OD
Flight time 1h 58m
Altitude 34000
Route MEROS N853 LUMAS DCT MAXIR DCT LUSOL DCT BODRU DCT OKTET DCT IRMAR DCT KINES DCT VANAS DCT MOBLO DCT UBIMA DCT SOSAL DCT KORED DCT BERSU DCT DITON/N0462F350 DCT LOKTA DCT TEDGO DCT HAREM DCT LOHRE/N0468F360 L984 ASKIK T840 GULKO GULKO1B
Aircraft B738/M-SDE2E3FGHIRWXY/LB1

Departure

Time 2026-04-20 17:46
Airport Palma de Mallorca Airport (LEPA)

Arrival

Time 2026-04-20 19:45
Airport Cologne Bonn Airport (EDDK)
Time Latitude Longitude Altitude Speed Heading
2026-04-20 17:00 39.54986 2.73328 35 ft 0 kts 185°
2026-04-20 17:35 39.54996 2.73329 34 ft 4 kts 179°
2026-04-20 17:35 39.55020 2.73322 35 ft 4 kts 136°
2026-04-20 17:35 39.55031 2.73294 33 ft 4 kts 90°
2026-04-20 17:35 39.55031 2.73284 33 ft 1 kts 85°
2026-04-20 17:40 39.55031 2.73291 35 ft 3 kts 87°
2026-04-20 17:40 39.55030 2.73354 35 ft 10 kts 88°
2026-04-20 17:40 39.55060 2.73454 34 ft 13 kts 58°
2026-04-20 17:41 39.55110 2.73558 35 ft 14 kts 58°
2026-04-20 17:41 39.55163 2.73663 34 ft 13 kts 56°
2026-04-20 17:41 39.55170 2.73745 35 ft 9 kts 117°
2026-04-20 17:41 39.55186 2.73818 35 ft 9 kts 41°
2026-04-20 17:42 39.55245 2.73795 34 ft 10 kts 328°
2026-04-20 17:42 39.55306 2.73747 35 ft 11 kts 328°
2026-04-20 17:42 39.55373 2.73693 35 ft 12 kts 328°
2026-04-20 17:42 39.55456 2.73627 32 ft 16 kts 329°
2026-04-20 17:43 39.55553 2.73551 28 ft 16 kts 328°
2026-04-20 17:43 39.55638 2.73497 27 ft 12 kts
2026-04-20 17:43 39.55690 2.73574 28 ft 11 kts 59°
2026-04-20 17:43 39.55735 2.73670 25 ft 14 kts 58°
2026-04-20 17:44 39.55798 2.73802 27 ft 20 kts 58°
2026-04-20 17:44 39.55876 2.73968 22 ft 22 kts 58°
2026-04-20 17:44 39.55957 2.74137 19 ft 22 kts 58°
2026-04-20 17:44 39.56034 2.74273 17 ft 15 kts 38°
2026-04-20 17:45 39.56092 2.74320 17 ft 15 kts 27°
2026-04-20 17:45 39.56215 2.74337 17 ft 14 kts 323°
2026-04-20 17:45 39.56229 2.74255 18 ft 8 kts 237°
2026-04-20 17:45 39.56197 2.74192 16 ft 8 kts 238°
2026-04-20 17:46 39.56098 2.73981 20 ft 59 kts 238°
2026-04-20 17:46 39.55765 2.73281 25 ft 121 kts 238°
2026-04-20 17:46 39.55225 2.72145 110 ft 164 kts 238°
2026-04-20 17:46 39.54651 2.70911 826 ft 158 kts 240°
2026-04-20 17:47 39.54070 2.69650 1436 ft 170 kts 236°
2026-04-20 17:47 39.53435 2.68312 1974 ft 182 kts 236°
2026-04-20 17:47 39.52725 2.66851 2392 ft 200 kts 236°
2026-04-20 17:47 39.51955 2.65293 2864 ft 208 kts 236°
2026-04-20 17:48 39.51172 2.63702 3359 ft 213 kts 236°
2026-04-20 17:48 39.50392 2.62043 3862 ft 216 kts 238°
2026-04-20 17:48 39.49465 2.60530 4299 ft 221 kts 217°
2026-04-20 17:48 39.47991 2.59767 4406 ft 241 kts 181°
2026-04-20 17:49 39.46364 2.60367 4712 ft 254 kts 146°
2026-04-20 17:49 39.45154 2.62126 4829 ft 279 kts 116°
2026-04-20 17:49 39.44645 2.64659 5085 ft 299 kts 96°
2026-04-20 17:49 39.44562 2.67306 6120 ft 288 kts 90°
2026-04-20 17:50 39.44555 2.69848 7152 ft 280 kts 90°
2026-04-20 17:50 39.44536 2.72388 7787 ft 286 kts 90°
2026-04-20 17:50 39.44499 2.74987 8399 ft 292 kts 91°
2026-04-20 17:50 39.44445 2.77614 9183 ft 291 kts 91°
2026-04-20 17:51 39.44390 2.80205 10012 ft 289 kts 91°
2026-04-20 17:51 39.44301 2.82841 10471 ft 300 kts 92°
2026-04-20 17:51 39.44197 2.85623 10700 ft 319 kts 92°
2026-04-20 17:51 39.44097 2.88577 10923 ft 338 kts 92°
2026-04-20 17:52 39.43993 2.91709 11074 ft 358 kts 92°
2026-04-20 17:52 39.43885 2.95002 11264 ft 375 kts 92°
2026-04-20 17:52 39.43769 2.98448 11459 ft 390 kts 92°
2026-04-20 17:52 39.43638 3.02003 11792 ft 400 kts 92°
2026-04-20 17:53 39.43499 3.05621 12287 ft 405 kts 92°
2026-04-20 17:53 39.43359 3.09277 12814 ft 409 kts 92°
2026-04-20 17:53 39.43219 3.12973 13342 ft 414 kts 92°
2026-04-20 17:53 39.43077 3.16711 13860 ft 418 kts 92°
2026-04-20 17:54 39.42937 3.20491 14353 ft 423 kts 91°
2026-04-20 17:54 39.43113 3.24252 14851 ft 426 kts 79°
2026-04-20 17:54 39.43902 3.27954 15392 ft 427 kts 67°
2026-04-20 17:54 39.45217 3.31397 15914 ft 429 kts 57°
2026-04-20 17:55 39.46765 3.34714 16425 ft 432 kts 56°
2026-04-20 17:55 39.48344 3.38049 16920 ft 436 kts 56°
2026-04-20 17:55 39.49934 3.41418 17414 ft 440 kts 56°
2026-04-20 17:55 39.51527 3.44825 17903 ft 444 kts 57°
2026-04-20 17:56 39.53123 3.48268 18373 ft 448 kts 57°
2026-04-20 17:56 39.54724 3.51746 18792 ft 451 kts 57°
2026-04-20 17:56 39.56328 3.55247 19268 ft 452 kts 57°
2026-04-20 17:56 39.57938 3.58769 19753 ft 454 kts 57°
2026-04-20 17:57 39.59549 3.62301 20210 ft 456 kts 57°
2026-04-20 17:57 39.61167 3.65851 20665 ft 458 kts 57°
2026-04-20 17:57 39.62788 3.69412 21093 ft 460 kts 57°
2026-04-20 17:57 39.64422 3.73005 21512 ft 463 kts 57°
2026-04-20 17:58 39.66058 3.76604 21924 ft 465 kts 57°
2026-04-20 17:58 39.67703 3.80226 22326 ft 467 kts 57°
2026-04-20 17:58 39.69355 3.83869 22702 ft 470 kts 57°
2026-04-20 17:58 39.71016 3.87536 23076 ft 472 kts 57°
2026-04-20 17:59 39.72683 3.91221 23462 ft 474 kts 57°
2026-04-20 17:59 39.73789 3.93669 23682 ft 475 kts 57°
2026-04-20 17:59 39.75467 3.97386 23968 ft 478 kts 57°
2026-04-20 17:59 39.77151 4.01121 24244 ft 481 kts 57°
2026-04-20 18:00 39.78848 4.04888 24547 ft 483 kts 57°
2026-04-20 18:00 39.80546 4.08663 24849 ft 484 kts 57°
2026-04-20 18:00 39.82249 4.12453 25135 ft 486 kts 57°
2026-04-20 18:00 39.83975 4.16247 25407 ft 487 kts 54°
2026-04-20 18:01 39.86157 4.19579 25637 ft 483 kts 36°
2026-04-20 18:01 39.88960 4.21912 25924 ft 476 kts 21°
2026-04-20 18:01 39.92080 4.23233 26205 ft 470 kts
2026-04-20 18:01 39.95295 4.23948 26503 ft 470 kts
2026-04-20 18:02 39.98532 4.24633 26735 ft 472 kts
2026-04-20 18:02 40.01779 4.25328 27033 ft 473 kts
2026-04-20 18:02 40.05018 4.26046 27430 ft 471 kts
2026-04-20 18:02 40.08238 4.26783 27852 ft 469 kts
2026-04-20 18:03 40.11443 4.27533 28262 ft 467 kts
2026-04-20 18:03 40.14648 4.28290 28621 ft 467 kts
2026-04-20 18:03 40.17837 4.29047 28994 ft 466 kts
2026-04-20 18:03 40.21037 4.29806 29325 ft 467 kts
2026-04-20 18:04 40.24231 4.30565 29692 ft 466 kts
2026-04-20 18:04 40.27416 4.31322 30095 ft 464 kts
2026-04-20 18:04 40.30589 4.32076 30438 ft 463 kts
2026-04-20 18:04 40.33749 4.32827 30736 ft 462 kts
2026-04-20 18:05 40.40072 4.34331 31345 ft 461 kts
2026-04-20 18:05 40.43234 4.35084 31562 ft 462 kts
2026-04-20 18:05 40.46403 4.35840 31813 ft 463 kts
2026-04-20 18:06 40.49565 4.36595 32154 ft 461 kts
2026-04-20 18:06 40.52713 4.37346 32496 ft 459 kts
2026-04-20 18:06 40.55816 4.38081 32782 ft 458 kts
2026-04-20 18:06 40.58951 4.38823 33062 ft 458 kts
2026-04-20 18:07 40.62084 4.39564 33342 ft 457 kts
2026-04-20 18:07 40.65203 4.40304 33662 ft 455 kts
2026-04-20 18:07 40.68318 4.41045 33955 ft 454 kts
2026-04-20 18:07 40.71442 4.41787 33956 ft 458 kts
2026-04-20 18:08 40.77704 4.43279 33964 ft 456 kts
2026-04-20 18:08 40.83925 4.44766 33989 ft 453 kts
2026-04-20 18:09 40.90117 4.46248 33974 ft 451 kts
2026-04-20 18:09 40.96281 4.47749 33973 ft 450 kts
2026-04-20 18:10 41.02441 4.49260 33971 ft 450 kts
2026-04-20 18:10 41.08603 4.50769 33978 ft 451 kts
2026-04-20 18:11 41.14796 4.52279 33973 ft 453 kts
2026-04-20 18:11 41.20997 4.53793 33971 ft 454 kts
2026-04-20 18:12 41.27222 4.55317 33983 ft 455 kts
2026-04-20 18:12 41.33467 4.56850 33972 ft 457 kts
2026-04-20 18:13 41.39731 4.58391 33966 ft 458 kts
2026-04-20 18:13 41.45992 4.59934 33964 ft 458 kts
2026-04-20 18:14 41.52267 4.61483 33963 ft 459 kts
2026-04-20 18:14 41.58549 4.63037 33967 ft 459 kts
2026-04-20 18:15 41.64832 4.64595 33953 ft 459 kts
2026-04-20 18:15 41.71072 4.66180 33964 ft 460 kts
2026-04-20 18:16 41.77077 4.69489 33956 ft 470 kts 26°
2026-04-20 18:16 41.82632 4.74012 33955 ft 470 kts 27°
2026-04-20 18:17 41.88243 4.78643 33956 ft 470 kts 27°
2026-04-20 18:17 41.93799 4.83171 33954 ft 470 kts 27°
2026-04-20 18:18 41.99396 4.87698 33955 ft 470 kts 27°
2026-04-20 18:18 42.05004 4.92231 33956 ft 470 kts 27°
2026-04-20 18:19 42.10604 4.96770 33962 ft 470 kts 26°
2026-04-20 18:19 42.16209 5.01324 33955 ft 471 kts 26°
2026-04-20 18:20 42.21815 5.05888 33949 ft 471 kts 26°
2026-04-20 18:20 42.27433 5.10473 33949 ft 472 kts 26°
2026-04-20 18:21 42.33057 5.15072 33952 ft 473 kts 26°
2026-04-20 18:21 42.38694 5.19692 33945 ft 473 kts 26°
2026-04-20 18:22 42.44328 5.24320 33946 ft 474 kts 26°
2026-04-20 18:22 42.49962 5.28957 33959 ft 474 kts 26°
2026-04-20 18:23 42.55600 5.33607 33947 ft 474 kts 26°
2026-04-20 18:23 42.61187 5.38225 33939 ft 473 kts 26°
2026-04-20 18:24 42.66798 5.42873 33931 ft 472 kts 26°
2026-04-20 18:24 42.72391 5.47516 33938 ft 471 kts 26°
2026-04-20 18:25 42.77980 5.52165 33937 ft 470 kts 26°
2026-04-20 18:25 42.83559 5.56816 33922 ft 470 kts 26°
2026-04-20 18:26 42.89126 5.61466 33950 ft 470 kts 26°
2026-04-20 18:26 42.94705 5.66137 33947 ft 471 kts 26°
2026-04-20 18:27 43.00307 5.70836 33931 ft 473 kts 26°
2026-04-20 18:27 43.05918 5.75554 33931 ft 475 kts 26°
2026-04-20 18:28 43.11552 5.80302 33925 ft 476 kts 25°
2026-04-20 18:28 43.17203 5.85075 33916 ft 478 kts 25°
2026-04-20 18:29 43.22864 5.89868 33915 ft 478 kts 25°
2026-04-20 18:29 43.28526 5.94672 33930 ft 478 kts 25°
2026-04-20 18:30 43.34176 5.99476 33906 ft 478 kts 26°
2026-04-20 18:30 43.40054 6.03455 33905 ft 464 kts 10°
2026-04-20 18:31 43.46287 6.04916 33916 ft 450 kts 357°
2026-04-20 18:31 43.52538 6.05427 33912 ft 450 kts 357°
2026-04-20 18:32 43.58793 6.05989 33906 ft 451 kts 358°
2026-04-20 18:32 43.65052 6.06604 33905 ft 450 kts 358°
2026-04-20 18:33 43.71260 6.07221 33910 ft 451 kts 358°
2026-04-20 18:33 43.77539 6.08422 33917 ft 459 kts
2026-04-20 18:34 43.83455 6.11906 33915 ft 469 kts 21°
2026-04-20 18:34 43.89321 6.16037 33920 ft 470 kts 21°
2026-04-20 18:35 43.95166 6.20108 33908 ft 470 kts 20°
2026-04-20 18:35 44.00984 6.24101 33920 ft 470 kts 20°
2026-04-20 18:36 44.06849 6.28120 33925 ft 470 kts 20°
2026-04-20 18:36 44.12715 6.32154 33923 ft 470 kts 20°
2026-04-20 18:37 44.18566 6.36186 33919 ft 469 kts 20°
2026-04-20 18:37 44.24417 6.40236 33947 ft 469 kts 20°
2026-04-20 18:38 44.30262 6.44285 33931 ft 469 kts 20°
2026-04-20 18:38 44.36117 6.48351 33914 ft 470 kts 20°
2026-04-20 18:39 44.41971 6.52436 33927 ft 470 kts 21°
2026-04-20 18:39 44.47824 6.56525 33949 ft 470 kts 20°
2026-04-20 18:40 44.53685 6.60608 33913 ft 470 kts 20°
2026-04-20 18:40 44.58549 6.63979 33921 ft 468 kts 20°
2026-04-20 18:41 44.64374 6.68045 33931 ft 467 kts 20°
2026-04-20 18:41 44.70198 6.72123 33955 ft 468 kts 20°
2026-04-20 18:42 44.76023 6.76192 33937 ft 466 kts 18°
2026-04-20 18:42 44.82127 6.78604 33953 ft 450 kts
2026-04-20 18:43 44.88286 6.78621 33951 ft 440 kts 350°
2026-04-20 18:43 44.94390 6.78125 33945 ft 438 kts 350°
2026-04-20 18:44 45.00474 6.77670 33966 ft 437 kts 351°
2026-04-20 18:44 45.06512 6.77260 33942 ft 437 kts 351°
2026-04-20 18:45 45.12579 6.76862 33979 ft 437 kts 351°
2026-04-20 18:45 45.18659 6.76459 34003 ft 438 kts 351°
2026-04-20 18:46 45.24772 6.76052 33972 ft 440 kts 350°
2026-04-20 18:46 45.30884 6.75648 33992 ft 439 kts 351°
2026-04-20 18:47 45.36987 6.75251 34001 ft 439 kts 351°
2026-04-20 18:47 45.43101 6.74858 34018 ft 441 kts 351°
2026-04-20 18:48 45.49234 6.74464 33985 ft 441 kts 350°
2026-04-20 18:48 45.55367 6.74052 34002 ft 442 kts 350°
2026-04-20 18:49 45.61493 6.73634 34001 ft 441 kts 351°
2026-04-20 18:49 45.67594 6.73218 34031 ft 437 kts 351°
2026-04-20 18:50 45.73676 6.72798 34022 ft 437 kts 350°
2026-04-20 18:50 45.79759 6.72385 34044 ft 438 kts 350°
2026-04-20 18:51 45.85831 6.71968 34020 ft 437 kts 350°
2026-04-20 18:51 45.91878 6.71547 33995 ft 434 kts 350°
2026-04-20 18:52 45.97883 6.71131 34037 ft 430 kts 350°
2026-04-20 18:52 46.03862 6.70712 34019 ft 429 kts 350°
2026-04-20 18:53 46.09815 6.70302 34017 ft 428 kts 351°
2026-04-20 18:53 46.15815 6.71294 34017 ft 444 kts
2026-04-20 18:54 46.21752 6.73847 34023 ft 446 kts
2026-04-20 18:54 46.27707 6.76449 34025 ft 449 kts
2026-04-20 18:55 46.33739 6.79019 34001 ft 454 kts
2026-04-20 18:55 46.39780 6.81575 34019 ft 458 kts
2026-04-20 18:56 46.45890 6.84173 34025 ft 457 kts
2026-04-20 18:56 46.51982 6.86821 34029 ft 460 kts 12°
2026-04-20 18:57 46.54902 6.88860 34043 ft 472 kts 24°
2026-04-20 18:57 46.57573 6.91717 34030 ft 483 kts 35°
2026-04-20 18:57 46.62026 6.99185 34045 ft 492 kts 45°
2026-04-20 18:58 46.66231 7.07038 34040 ft 491 kts 45°
2026-04-20 18:58 46.70467 7.14816 34043 ft 489 kts 45°
2026-04-20 18:59 46.74732 7.22542 34073 ft 489 kts 44°
2026-04-20 18:59 46.78994 7.30268 34046 ft 489 kts 45°
2026-04-20 19:00 46.83249 7.38015 34048 ft 488 kts 45°
2026-04-20 19:00 46.87492 7.45772 34047 ft 488 kts 45°
2026-04-20 19:01 46.91714 7.53531 34048 ft 487 kts 45°
2026-04-20 19:01 46.95931 7.61302 34053 ft 488 kts 45°
2026-04-20 19:02 47.00150 7.69097 34039 ft 488 kts 45°
2026-04-20 19:02 47.04357 7.76894 34053 ft 487 kts 46°
2026-04-20 19:03 47.08550 7.84685 34043 ft 486 kts 46°
2026-04-20 19:03 47.12735 7.92480 34080 ft 485 kts 46°
2026-04-20 19:04 47.16561 8.00613 34070 ft 489 kts 53°
2026-04-20 19:04 47.20066 8.09166 34060 ft 487 kts 53°
2026-04-20 19:05 47.23596 8.17654 34068 ft 485 kts 53°
2026-04-20 19:05 47.27203 8.26177 34252 ft 489 kts 53°
2026-04-20 19:06 47.29061 8.30251 34509 ft 482 kts 46°
2026-04-20 19:06 47.31237 8.33795 34948 ft 469 kts 38°
2026-04-20 19:06 47.36406 8.39522 35100 ft 465 kts 27°
2026-04-20 19:07 47.41844 8.44647 35072 ft 462 kts 27°
2026-04-20 19:07 47.47240 8.49793 35069 ft 460 kts 27°
2026-04-20 19:08 47.55257 8.57567 35085 ft 459 kts 27°
2026-04-20 19:09 47.60584 8.62766 35079 ft 458 kts 27°
2026-04-20 19:09 47.65906 8.67971 35081 ft 458 kts 27°
2026-04-20 19:10 47.71237 8.73197 35096 ft 459 kts 27°
2026-04-20 19:10 47.76575 8.78441 35094 ft 461 kts 27°
2026-04-20 19:11 47.81942 8.83727 35094 ft 463 kts 27°
2026-04-20 19:11 47.87319 8.89037 35093 ft 464 kts 27°
2026-04-20 19:12 47.92712 8.94378 35104 ft 466 kts 27°
2026-04-20 19:12 47.98090 8.99716 35100 ft 468 kts 27°
2026-04-20 19:13 48.03610 9.04811 35070 ft 459 kts 15°
2026-04-20 19:13 48.06649 9.05973 35113 ft 445 kts 360°
2026-04-20 19:13 48.09709 9.06070 35122 ft 436 kts 348°
2026-04-20 19:14 48.15629 9.04497 35103 ft 433 kts 343°
2026-04-20 19:14 48.21569 9.02891 35101 ft 434 kts 344°
2026-04-20 19:15 48.27542 9.01325 34666 ft 436 kts 344°
2026-04-20 19:15 48.30517 9.00553 34360 ft 432 kts 343°
2026-04-20 19:15 48.33475 8.99787 33884 ft 431 kts 343°
2026-04-20 19:15 48.36420 8.99023 33349 ft 426 kts 343°
2026-04-20 19:16 48.39323 8.98271 32878 ft 419 kts 343°
2026-04-20 19:16 48.42174 8.97530 32412 ft 414 kts 342°
2026-04-20 19:16 48.45009 8.96788 31943 ft 413 kts 342°
2026-04-20 19:16 48.47840 8.96043 31473 ft 413 kts 342°
2026-04-20 19:17 48.50668 8.95299 30998 ft 412 kts 342°
2026-04-20 19:17 48.53486 8.94557 30525 ft 410 kts 342°
2026-04-20 19:17 48.56294 8.93818 30059 ft 409 kts 342°
2026-04-20 19:17 48.59081 8.93085 29624 ft 406 kts 342°
2026-04-20 19:18 48.61887 8.92342 29213 ft 411 kts 342°
2026-04-20 19:18 48.64726 8.91587 28799 ft 416 kts 342°
2026-04-20 19:18 48.67580 8.90830 28393 ft 417 kts 342°
2026-04-20 19:18 48.70452 8.90069 28152 ft 422 kts 342°
2026-04-20 19:19 48.73370 8.89292 27877 ft 429 kts 342°
2026-04-20 19:19 48.76329 8.88504 27658 ft 434 kts 342°
2026-04-20 19:19 48.79297 8.87719 27383 ft 433 kts 342°
2026-04-20 19:19 48.82262 8.86937 27117 ft 432 kts 342°
2026-04-20 19:20 48.85232 8.86150 26750 ft 434 kts 343°
2026-04-20 19:20 48.88215 8.85357 26378 ft 436 kts 343°
2026-04-20 19:20 48.91211 8.84558 25999 ft 438 kts 343°
2026-04-20 19:20 48.94215 8.83756 25624 ft 438 kts 343°
2026-04-20 19:21 48.97215 8.82956 25293 ft 438 kts 344°
2026-04-20 19:21 49.00179 8.82163 24979 ft 438 kts 344°
2026-04-20 19:21 49.03213 8.81353 24715 ft 436 kts 344°
2026-04-20 19:21 49.06152 8.80567 24485 ft 433 kts 344°
2026-04-20 19:22 49.09113 8.79774 24254 ft 432 kts 344°
2026-04-20 19:22 49.12084 8.78973 24156 ft 435 kts 344°
2026-04-20 19:22 49.15073 8.78165 24116 ft 438 kts 344°
2026-04-20 19:22 49.18076 8.77353 24116 ft 438 kts 344°
2026-04-20 19:23 49.21081 8.76541 24112 ft 440 kts 346°
2026-04-20 19:23 49.24111 8.75721 24115 ft 445 kts 346°
2026-04-20 19:23 49.27162 8.74896 24120 ft 447 kts 346°
2026-04-20 19:23 49.29236 8.74334 24120 ft 448 kts 346°
2026-04-20 19:24 49.32314 8.73501 24119 ft 450 kts 346°
2026-04-20 19:24 49.35359 8.72676 24127 ft 450 kts 346°
2026-04-20 19:24 49.38443 8.71839 24126 ft 450 kts 346°
2026-04-20 19:24 49.41553 8.70994 24126 ft 445 kts 346°
2026-04-20 19:25 49.44563 8.70175 24147 ft 444 kts 347°
2026-04-20 19:25 49.47605 8.69345 24135 ft 444 kts 347°
2026-04-20 19:25 49.50694 8.68501 24129 ft 444 kts 347°
2026-04-20 19:25 49.53690 8.67681 24135 ft 444 kts 347°
2026-04-20 19:26 49.56731 8.66848 24131 ft 444 kts 347°
2026-04-20 19:26 49.59765 8.66015 24136 ft 444 kts 347°
2026-04-20 19:26 49.62805 8.65180 24132 ft 444 kts 347°
2026-04-20 19:26 49.65847 8.64343 24135 ft 444 kts 348°
2026-04-20 19:27 49.68899 8.63503 24131 ft 446 kts 348°
2026-04-20 19:27 49.71962 8.62654 24138 ft 448 kts 347°
2026-04-20 19:27 49.74969 8.61404 24128 ft 448 kts 338°
2026-04-20 19:27 49.77850 8.59558 23999 ft 452 kts 335°
2026-04-20 19:28 49.80733 8.57597 23698 ft 454 kts 335°
2026-04-20 19:28 49.83625 8.55610 23289 ft 454 kts 335°
2026-04-20 19:28 49.86506 8.53646 22835 ft 448 kts 335°
2026-04-20 19:28 49.89344 8.51735 21958 ft 444 kts 336°
2026-04-20 19:29 49.92171 8.49849 21096 ft 442 kts 337°
2026-04-20 19:29 49.94980 8.47986 20433 ft 435 kts 337°
2026-04-20 19:29 49.97740 8.46160 19844 ft 427 kts 337°
2026-04-20 19:29 50.00461 8.44362 19178 ft 422 kts 337°
2026-04-20 19:30 50.03147 8.42585 18540 ft 417 kts 337°
2026-04-20 19:30 50.05798 8.40829 17795 ft 413 kts 337°
2026-04-20 19:30 50.08421 8.39089 17241 ft 406 kts 337°
2026-04-20 19:30 50.10998 8.37376 16759 ft 398 kts 337°
2026-04-20 19:31 50.13537 8.35686 16298 ft 398 kts 338°
2026-04-20 19:31 50.16110 8.33973 15896 ft 403 kts 338°
2026-04-20 19:31 50.18693 8.32250 15514 ft 403 kts 338°
2026-04-20 19:31 50.21264 8.30533 15129 ft 401 kts 338°
2026-04-20 19:32 50.23815 8.28828 14828 ft 397 kts 337°
2026-04-20 19:32 50.26312 8.27157 14577 ft 393 kts 337°
2026-04-20 19:32 50.28818 8.25477 14324 ft 391 kts 337°
2026-04-20 19:32 50.31316 8.23800 14211 ft 392 kts 338°
2026-04-20 19:33 50.33787 8.21895 14156 ft 399 kts 327°
2026-04-20 19:33 50.35917 8.19140 14167 ft 396 kts 315°
2026-04-20 19:33 50.37697 8.15813 14158 ft 402 kts 306°
2026-04-20 19:33 50.39234 8.12203 14065 ft 397 kts 304°
2026-04-20 19:34 50.40759 8.08578 13804 ft 399 kts 304°
2026-04-20 19:34 50.42291 8.04945 13527 ft 398 kts 304°
2026-04-20 19:34 50.43817 8.01335 13270 ft 394 kts 304°
2026-04-20 19:34 50.45306 7.97825 13170 ft 377 kts 304°
2026-04-20 19:35 50.46728 7.94479 13143 ft 360 kts 305°
2026-04-20 19:35 50.48082 7.91292 13156 ft 343 kts 305°
2026-04-20 19:35 50.49379 7.88242 13145 ft 328 kts 305°
2026-04-20 19:35 50.50620 7.85322 13146 ft 315 kts 305°
2026-04-20 19:36 50.51809 7.82521 13140 ft 302 kts 305°
2026-04-20 19:36 50.52968 7.79791 12692 ft 305 kts 305°
2026-04-20 19:36 50.54155 7.76994 12082 ft 309 kts 305°
2026-04-20 19:36 50.55353 7.74168 11450 ft 312 kts 305°
2026-04-20 19:37 50.56556 7.71322 10830 ft 313 kts 305°
2026-04-20 19:37 50.57761 7.68470 10211 ft 314 kts 305°
2026-04-20 19:37 50.58969 7.65607 9568 ft 314 kts 305°
2026-04-20 19:37 50.60171 7.62754 8956 ft 312 kts 305°
2026-04-20 19:38 50.61366 7.59915 8352 ft 310 kts 305°
2026-04-20 19:38 50.62553 7.57092 7754 ft 308 kts 304°
2026-04-20 19:38 50.63732 7.54284 7179 ft 306 kts 305°
2026-04-20 19:38 50.64903 7.51494 6593 ft 304 kts 304°
2026-04-20 19:39 50.66064 7.48723 5993 ft 302 kts 304°
2026-04-20 19:39 50.67216 7.45973 5385 ft 299 kts 304°
2026-04-20 19:39 50.68356 7.43246 4842 ft 296 kts 304°
2026-04-20 19:39 50.69474 7.40571 4485 ft 286 kts 304°
2026-04-20 19:40 50.70626 7.38127 4311 ft 270 kts 315°
2026-04-20 19:40 50.71982 7.36148 3989 ft 262 kts 320°
2026-04-20 19:40 50.73325 7.34296 3651 ft 257 kts 319°
2026-04-20 19:40 50.74654 7.32389 3304 ft 251 kts 319°
2026-04-20 19:41 50.75892 7.30580 2963 ft 234 kts 319°
2026-04-20 19:41 50.77039 7.28906 2670 ft 215 kts 319°
2026-04-20 19:41 50.78095 7.27367 2376 ft 198 kts 320°
2026-04-20 19:41 50.79054 7.25970 2115 ft 182 kts 321°
2026-04-20 19:42 50.79944 7.24675 1874 ft 167 kts 321°
2026-04-20 19:42 50.80770 7.23474 1653 ft 157 kts 321°
2026-04-20 19:42 50.81540 7.22356 1430 ft 147 kts 320°
2026-04-20 19:42 50.82277 7.21285 1234 ft 143 kts 319°
2026-04-20 19:43 50.83019 7.20205 1025 ft 147 kts 319°
2026-04-20 19:43 50.83770 7.19113 844 ft 147 kts 320°
2026-04-20 19:43 50.84524 7.18018 630 ft 146 kts 321°
2026-04-20 19:43 50.85280 7.16919 432 ft 150 kts 321°
2026-04-20 19:44 50.86057 7.15778 311 ft 153 kts 321°
2026-04-20 19:44 50.86787 7.14739 266 ft 122 kts 317°
2026-04-20 19:44 50.87197 7.14147 246 ft 72 kts 316°
2026-04-20 19:44 50.87548 7.13637 239 ft 65 kts 317°
2026-04-20 19:45 50.87755 7.13333 238 ft 26 kts 317°
2026-04-20 19:45 50.87882 7.13149 238 ft 24 kts 317°
2026-04-20 19:45 50.87988 7.12970 238 ft 18 kts 298°
2026-04-20 19:45 50.88007 7.12840 237 ft 6 kts 269°
2026-04-20 19:46 50.88002 7.12787 236 ft 2 kts 257°
2026-04-20 19:46 50.87993 7.12748 235 ft 6 kts 244°
2026-04-20 19:46 50.87959 7.12677 231 ft 10 kts 224°
2026-04-20 19:46 50.87901 7.12620 231 ft 9 kts 200°
2026-04-20 19:47 50.87858 7.12588 233 ft 6 kts 231°
2026-04-20 19:47 50.87859 7.12532 231 ft 2 kts 285°
2026-04-20 19:47 50.87864 7.12509 232 ft 3 kts 288°
2026-04-20 19:47 50.87870 7.12476 231 ft 3 kts 288°
2026-04-20 19:48 50.87872 7.12468 231 ft 0 kts 288°